Flag for Germany Weather past 2 weeks in Konstanz, Baden-Württemberg, Germany

Now
67 °F

Overcast.


Feels Like: 67 °F
Forecast: 58 / 65 °F
Wind: 2 mph from Northwest

Location: Konstanz

Current Time: Jul 29, 2014 at 7:58:55 PM

Latest Report: Jul 29, 2014 at 7:00 PM


Visibility: 38 mi

Pressure: 29.76 "Hg

Humidity: 73%

Dew point: 59 °F

Location of KonstanzLocation

Historic Weather in Konstanz — Graph

°F

Konstanz temperature yesterday

Maximum temperature yesterday: 81 °F (at 4:00 PM)
Minimum temperature yesterday: 61 °F (at 11:00 PM)
Average temperature yesterday: 69 °F

Past Weeks' High & Low Weather Summary

 TemperatureHumidityPressure
High91 °F (Jul 19, 6:00 PM)99% (Jul 23, 4:00 AM)30.19 "Hg (Jul 23, 4:00 AM)
Low59 °F (Jul 25, 6:00 AM)14% (Jul 18, 5:00 PM)29.70 "Hg (Jul 28, 7:00 PM)
Average69 °F71%29.95 "Hg
* Reported Jul 14 6:00 PM — Jul 29 6:00 PM, Konstanz, Weather by CustomWeather, © 2014

Note: Actual official high and low records may vary slightly from our data, if they occured in-between our weather recording intervals... More about our weather records

Advertising

Konstanz weather history for previous 24 hours

 ConditionsComfort  
Time TempWeatherWind HumidityBarometerVisibility
6:00 PM
Jul 29
68 °FOvercast.2 mph70%29.76 "Hg37 mi
5:00 PM68 °FOvercast.2 mph68%29.76 "Hg43 mi
4:00 PM68 °FOvercast.3 mph69%29.76 "Hg43 mi
3:00 PM68 °FOvercast.1 mph66%29.77 "Hg43 mi
2:00 PM67 °FOvercast.2 mph68%29.78 "Hg43 mi
1:00 PM65 °FOvercast.2 mph73%29.79 "Hg34 mi
12:00 PM62 °FOvercast.3 mph85%29.80 "Hg22 mi
11:00 AM61 °FLight rain. Low clouds.2 mph87%29.80 "Hg11 mi
10:00 AM60 °FLow clouds.2 mph89%29.81 "Hg14 mi
9:00 AM59 °FLight rain. Low clouds.2 mph92%29.81 "Hg14 mi
8:00 AM59 °FLight rain. Low clouds.2 mph93%29.80 "Hg9 mi
7:00 AM59 °FLight rain. Overcast.2 mph91%29.80 "Hg12 mi
6:00 AM59 °FLight rain. Overcast.2 mph95%29.80 "Hg14 mi
5:00 AM60 °FLight freezing rain. Overcast.2 mph89%29.81 "Hg16 mi
4:00 AM60 °FOvercast.2 mph90%29.82 "Hg43 mi
3:00 AM60 °FOvercast.3 mph88%29.83 "Hg43 mi
2:00 AM60 °FDrizzle. Overcast.3 mph92%29.84 "Hg34 mi
1:00 AM60 °FLight rain. Overcast.5 mph87%29.86 "Hg40 mi
12:00 AM60 °FLow clouds.5 mph92%29.84 "Hg43 mi
11:00 PM
Jul 28
61 °FRain. Low clouds.5 mph93%29.85 "Hg6 mi
10:00 PM63 °FLight rain. Overcast.3 mph89%29.85 "Hg8 mi
9:00 PM65 °FLight rain. Overcast.8 mph79%29.80 "Hg22 mi
8:00 PM69 °FOvercast.6 mph73%29.76 "Hg25 mi
7:00 PM78 °FSprinkles. Overcast.2 mph55%29.70 "Hg16 mi
Weather by CustomWeather, © 2014

See weather overviewHow to use our weather pages